sat.trackr.live / text

‹ back to catalog

STARLINK-4019

NORAD 52598 · 2022-052A

PAYLOAD ACTIVE UNKNOWN

§ Identity

Operator
Country
US
Launch date
2022-05-14
Launch site
AFETR
Launch vehicle
Mass (kg)
RCS (m²)

Purposes: comms

External: N2YO · Heavens-Above · Gunter

§ Orbital elements

Epoch: 2026-09-20T04:10:16.752000Z

Period
93.79 min
Inclination
53.1589°
Eccentricity
0.0001248
Mean motion
15.35397018 rev/d
Perigee alt
458.9 km
Apogee alt
460.6 km
Semi-major
6,837.9 km
B*
2.0786e-5
RAAN
117.7518°
Arg perigee
86.6166°
Mean anomaly
273.4979°
Rev number
24,112

§ Raw data

STARLINK-40191 52598U 22052A   26263.17380500  .00000345  00000+0  20786-4 0  99912 52598  53.1589 117.7518 0001248  86.6166 273.4979 15.35397018241123

JSON: /api/v1/satellites/52598 · /tle

For live sub-satellite position, see the globe view (requires WebGL).

§ Visibility from observer

Set your observer location to see the next 7 days of passes ≥ 10°. The values pass through the URL so the page stays shareable.

No JS? Fill the form by hand. The geolocation button needs JavaScript.